This demonstration page uses our WeatherBlox Daily Observations layout. Learn more.

Hourly Observations for February 25, 2019

Temp ( °F °C ) Dew Point ( °F °C ) Humidity (%) Winds ( mph kmh ) Pressure ( in mb ) Visibility ( mi km ) Precip ( " mm )
12:15 am 00:15 Clear 1 -17.5 -1 -18.5 92 92 E 3 6 30.58 1035 10 16.0934 0 0
12:35 am 00:35 Clear 3 -16.3 0 -17.9 88 88 E 6 9 30.56 1035 10 16.0934 0 0
12:55 am 00:55 Clear 0 -17.6 -3 -19.2 87 87 E 7 11 30.57 1035 10 16.0934 0 0
1:15 am 01:15 Clear 0 -17.8 -3 -19.6 86 86 E 8 13 30.56 1035 10 16.0934 0 0
1:35 am 01:35 Clear -2 -19.1 -6 -20.9 86 86 E 9 15 30.56 1035 10 16.0934 0 0
1:55 am 01:55 Clear 3 -16.2 0 -17.9 87 87 E 10 17 30.53 1034 10 16.0934 0 0
2:15 am 02:15 Clear 3 -16.3 -1 -18.3 85 85 E 10 17 30.53 1034 10 16.0934 0 0
2:35 am 02:35 Clear 2 -16.6 -1 -18.5 85 85 E 12 19 30.53 1034 10 16.0934 0 0
2:55 am 02:55 Clear 0 -17.9 -4 -19.9 84 84 ENE 9 15 30.53 1034 10 16.0934 0 0
3:15 am 03:15 Clear -1 -18.6 -4 -20.2 87 87 NE 9 15 30.53 1034 10 16.0934 0 0
3:35 am 03:35 Clear -2 -19 -5 -20.6 87 87 E 8 13 30.53 1034 10 16.0934 0 0
3:55 am 03:55 Clear -1 -18.6 -5 -20.3 87 87 E 8 13 30.52 1033 10 16.0934 0 0
4:15 am 04:15 Clear -3 -19.5 -6 -21.1 87 87 ENE 7 11 30.55 1034 10 16.0934 0 0
4:35 am 04:35 Clear -4 -20.1 -7 -21.9 86 86 ENE 8 13 30.56 1035 10 16.0934 0 0
4:55 am 04:55 Clear -2 -19.1 -5 -20.7 87 87 E 9 15 30.53 1034 10 16.0934 0 0
5:15 am 05:15 Clear -1 -18.6 -4 -20.2 87 87 E 9 15 30.53 1034 10 16.0934 0 0
5:35 am 05:35 Clear -5 -20.5 -8 -22.2 86 86 NE 7 11 30.56 1035 10 16.0934 0 0
5:55 am 05:55 Clear -5 -20.5 -8 -22.1 87 87 NNE 7 11 30.57 1035 10 16.0934 0 0
6:15 am 06:15 Clear -6 -20.9 -9 -22.6 86 86 NE 8 13 30.57 1035 10 16.0934 0 0
6:35 am 06:35 Partly Cloudy -5 -20.8 -9 -22.5 86 86 NNE 8 13 30.56 1035 10 16.0934 0 0
6:55 am 06:55 Cloudy -5 -20.6 -8 -22.2 87 87 NE 7 11 30.56 1035 10 16.0934 0 0
7:15 am 07:15 Cloudy -2 -19 -5 -20.5 88 88 ENE 9 15 30.53 1034 10 16.0934 0 0
7:35 am 07:35 Cloudy -2 -18.7 -4 -20.1 89 89 ENE 12 19 30.54 1034 10 16.0934 0 0
7:55 am 07:55 Cloudy -1 -18.3 -4 -19.8 88 88 ENE 13 20 30.54 1034 10 16.0934 0 0
8:15 am 08:15 Cloudy -1 -18.1 -3 -19.5 89 89 ENE 13 20 30.53 1034 10 16.0934 0 0
8:35 am 08:35 Cloudy 0 -17.8 -2 -19.1 90 90 E 14 22 30.52 1034 10 16.0934 0 0
8:55 am 08:55 Cloudy 1 -17.4 -2 -18.9 88 88 E 13 20 30.54 1034 7 11.26538 0 0
9:15 am 09:15 Cloudy 1 -17.2 -2 -18.8 87 87 ENE 13 20 30.54 1034 7 11.26538 0 0
9:35 am 09:35 Cloudy 1 -17 -2 -18.8 86 86 E 14 22 30.54 1034 10 16.0934 0 0
9:55 am 09:55 Cloudy 2 -16.8 -2 -18.7 85 85 E 15 24 30.52 1033 10 16.0934 0 0
10:15 am 10:15 Cloudy 2 -16.6 -2 -18.7 84 84 E 16 26 30.52 1033 10 16.0934 0 0
10:35 am 10:35 Cloudy 3 -16.3 -1 -18.6 83 83 ENE 13 20 30.51 1033 10 16.0934 0 0
10:55 am 10:55 Cloudy 3 -16.1 -1 -18.5 82 82 ENE 14 22 30.51 1033 10 16.0934 0 0
11:15 am 11:15 Cloudy 3 -16 -1 -18.5 81 81 ENE 14 22 30.51 1033 10 16.0934 0 0
11:35 am 11:35 Cloudy 4 -15.6 -1 -18.1 81 81 ENE 15 24 30.52 1033 10 16.0934 0 0
11:55 am 11:55 Cloudy 4 -15.5 0 -18 81 81 ENE 15 24 30.49 1033 10 16.0934 0 0
12:15 pm 12:15 Cloudy 4 -15.3 0 -18 80 80 ENE 17 28 30.49 1033 10 16.0934 0 0
12:35 pm 12:35 Cloudy 5 -15.1 0 -17.7 81 81 ENE 16 26 30.49 1033 10 16.0934 0 0
12:55 pm 12:55 Cloudy 5 -14.9 1 -17.4 81 81 NE 15 24 30.49 1032 10 16.0934 0 0
1:15 pm 13:15 Cloudy 6 -14.7 1 -17.5 79 79 NE 15 24 30.49 1032 10 16.0934 0 0
1:35 pm 13:35 Cloudy 7 -14.1 1 -17.1 78 78 ENE 15 24 30.46 1031 10 16.0934 0 0
1:55 pm 13:55 Cloudy 7 -14.1 1 -17 79 79 NE 15 24 30.47 1032 10 16.0934 0 0
2:15 pm 14:15 Cloudy 7 -14.1 1 -17.1 78 78 NE 16 26 30.47 1032 10 16.0934 0 0
2:35 pm 14:35 Cloudy 6 -14.5 1 -17.1 81 81 NE 16 26 30.47 1032 10 16.0934 0 0
2:55 pm 14:55 Cloudy 6 -14.4 1 -17 81 81 NE 15 24 30.47 1032 10 16.0934 0 0
3:15 pm 15:15 Cloudy 6 -14.5 1 -17.2 80 80 NE 15 24 30.47 1032 10 16.0934 0 0
3:35 pm 15:35 Cloudy 6 -14.5 1 -17.4 79 79 NE 14 22 30.47 1032 10 16.0934 0 0
3:55 pm 15:55 Cloudy 6 -14.4 1 -17.2 79 79 NE 16 26 30.47 1032 10 16.0934 0 0
4:15 pm 16:15 Cloudy 6 -14.3 1 -17.3 78 78 NE 16 26 30.48 1032 10 16.0934 0 0
4:55 pm 16:55 Cloudy 6 -14.2 0 -17.8 74 74 NE 16 26 30.48 1032 10 16.0934 0 0
5:35 pm 17:35 Cloudy 7 -14 1 -17.3 76 76 NNE 13 20 30.5 1033 10 16.0934 0 0
5:55 pm 17:55 Cloudy 7 -14.1 2 -16.7 81 81 NNE 13 20 30.49 1032 10 16.0934 0 0
6:15 pm 18:15 Cloudy 6 -14.3 1 -17 80 80 NNE 17 28 30.5 1033 10 16.0934 0 0
6:35 pm 18:35 Cloudy 6 -14.6 1 -17.2 81 81 NNE 15 24 30.5 1033 10 16.0934 0 0
6:55 pm 18:55 Cloudy 6 -14.7 1 -17.5 79 79 NE 14 22 30.51 1033 10 16.0934 0 0
7:15 pm 19:15 Cloudy 6 -14.6 0 -17.6 78 78 NE 13 20 30.51 1033 10 16.0934 0 0
7:35 pm 19:35 Cloudy 6 -14.7 0 -17.9 77 77 NNE 15 24 30.53 1034 10 16.0934 0 0
7:55 pm 19:55 Cloudy 5 -14.8 -1 -18.1 76 76 NNE 14 22 30.54 1034 10 16.0934 0 0
8:15 pm 20:15 Cloudy 5 -15 -1 -18.4 76 76 NNE 13 20 30.53 1034 10 16.0934 0 0
8:35 pm 20:35 Cloudy 5 -14.8 -1 -18.2 76 76 NNE 15 24 30.53 1034 10 16.0934 0 0
8:55 pm 20:55 Cloudy 5 -15 -1 -18.5 75 75 NNE 17 28 30.53 1034 10 16.0934 0 0
9:15 pm 21:15 Cloudy 5 -15.1 -1 -18.5 75 75 NNE 18 30 30.54 1034 10 16.0934 0 0
9:35 pm 21:35 Cloudy 5 -15.1 -1 -18.5 75 75 NE 14 22 30.54 1034 10 16.0934 0 0
9:55 pm 21:55 Cloudy 4 -15.5 -1 -18.5 78 78 NE 18 30 30.54 1034 10 16.0934 0 0
10:15 pm 22:15 Cloudy 4 -15.5 -1 -18.5 78 78 NE 17 28 30.54 1034 10 16.0934 0 0
10:35 pm 22:35 Cloudy 4 -15.5 -1 -18.5 78 78 NE 16 26 30.55 1035 10 16.0934 0 0
10:55 pm 22:55 Cloudy 4 -15.5 -1 -18.5 78 78 NE 16 26 30.56 1035 10 16.0934 0 0
11:15 pm 23:15 Cloudy 4 -15.5 -1 -18.1 81 81 NE 15 24 30.56 1035 10 16.0934 0 0
11:35 pm 23:35 Cloudy 4 -15.6 -1 -18.1 81 81 NE 18 30 30.56 1035 10 16.0934 0 0
11:55 pm 23:55 Cloudy 4 -15.7 0 -18 83 83 NE 16 26 30.56 1035 10 16.0934 0 0

Powered by AerisWeather